CYKG

Kangiqsujuaq (Wakeham Bay) Airport

ICAO Code CYKG
IATA Code
Name Kangiqsujuaq (Wakeham Bay) Airport
Location Kangiqsujuaq, Quebec, CA
Elevation 517 Feet / 157.6 Meters
Latitude 61.58861111
Longitude -71.92944444
METAR CYKG 312100Z 01008KT 15SM SCT025 BKN071 OVC120 08/06 A2983 RMK SC3AC2AS3 LST OBS/ NEXT 011200UTC SLP110
Extra information Display Charts and CFS
Display NOTAMS
Runway Length Width Surface Elevation
15 3520 ft 100 ft GRAVEL 517 ft
33 3520 ft 100 ft GRAVEL 478 ft